{"data":{"norad_id":67748,"intl_designator":"2026-027C","name":"2026-027C","alt_names":[],"object_type":"PAYLOAD","status":"ACTIVE","operator":null,"country":"PRC","launch_date":"2026-02-12","launch_site_code":"SCSLA","launch_vehicle":null,"mission":null,"orbit_class":"UNKNOWN","rcs_meters":null,"size_class":null,"mass_kg":null,"dimensions":null,"purposes":[],"wikipedia_slug":null,"has_3d_model":false,"image_url":null,"decayed_at":null,"tle_current":{"epoch":"2026-05-25T02:04:14.910816Z","epoch_age_seconds":60880,"freshness":"FRESH","line1":"1 67748U 26027C   26145.08628369  .00004007  00000+0  19690-3 0  9997","line2":"2 67748  97.5040 273.4356 0009315 303.8322  56.2025 15.18594516 15458","mean_motion":15.18594516,"eccentricity":0.0009315,"inclination_deg":97.504,"raan_deg":273.4356,"arg_perigee_deg":303.8322,"mean_anomaly_deg":56.2025,"bstar":0.0001969,"rev_number":1545,"period_min":94.824522598236,"perigee_km":503.67106681254,"apogee_km":516.50382895895,"semimajor_km":6888.2244478857,"source":"CELESTRAK","updated_at":"2026-05-25T13:38:07.230597Z"}}}